This is the latest recevied weather packets stored in our database for station/object S59MA-6. If no packets are shown the sender has not sent any weather packets the latest 10 day(s).
| Time | Temp. | Humidity | Pressure | Rain* | Wind** | Luminosity | Snow |
|---|---|---|---|---|---|---|---|
| 1777875348 | 15° C | 73% | 1007 hPa | 0 mm | - | - | - |
| 1777875047 | 15° C | 75% | 1006.9 hPa | 0 mm | - | - | - |
| 1777874750 | 14.44° C | 76% | 1007.1 hPa | 0 mm | - | - | - |
| 1777874447 | 13.89° C | 77% | 1006.9 hPa | 0 mm | - | - | - |
| 1777874147 | 13.33° C | 78% | 1006.9 hPa | 0 mm | - | - | - |
| 1777873848 | 12.78° C | 78% | 1006.9 hPa | 0 mm | - | - | - |
| 1777873547 | 12.22° C | 78% | 1006.9 hPa | 0 mm | - | - | - |
| 1777872047 | 11.67° C | 79% | 1006.6 hPa | 0 mm | - | - | - |
| 1777871447 | 11.67° C | 80% | 1006.7 hPa | 0 mm | - | - | - |
| 1777871146 | 11.67° C | 80% | 1006.8 hPa | 0 mm | - | - | - |
| 1777870846 | 11.11° C | 81% | 1006.8 hPa | 0 mm | - | - | - |
| 1777870546 | 10.56° C | 81% | 1006.6 hPa | 0 mm | - | - | - |
| 1777870246 | 9.44° C | 81% | 1006.6 hPa | 0 mm | - | - | - |
| 1777869946 | 8.33° C | 80% | 1006.6 hPa | 0 mm | - | - | - |
| 1777869646 | 7.78° C | 80% | 1006.7 hPa | 0 mm | - | - | - |
| 1777869348 | 7.78° C | 80% | 1006.5 hPa | 0 mm | - | - | - |
| 1777869046 | 7.22° C | 80% | 1006.6 hPa | 0 mm | - | - | - |
| 1777868746 | 7.22° C | 79% | 1006.6 hPa | 0 mm | - | - | - |
| 1777868446 | 7.22° C | 79% | 1006.6 hPa | 0 mm | - | - | - |
| 1777868147 | 6.67° C | 79% | 1006.5 hPa | 0 mm | - | - | - |
| 1777867846 | 6.67° C | 79% | 1006.6 hPa | 0 mm | - | - | - |
| 1777867548 | 6.67° C | 79% | 1006.4 hPa | 0 mm | - | - | - |
| 1777867247 | 6.67° C | 79% | 1006.6 hPa | 0 mm | - | - | - |
| 1777866946 | 6.67° C | 79% | 1006.5 hPa | 0 mm | - | - | - |
| 1777866347 | 6.67° C | 78% | 1006.5 hPa | 0 mm | - | - | - |
* Rain latest hour (hover to see other rain measurements)
** Current wind speed in m/s (hover to see current wind gust speed)